TimeEST,TemperatureF,Dew PointF,Humidity,Sea Level PressureIn,VisibilityMPH,Wind Direction,Wind SpeedMPH,Gust SpeedMPH,PrecipitationIn,Events,Conditions,WindDirDegrees,DateUTC
12:07 AM,48.9,46.0,90,29.92,4.0,SSE,9.2,19.6,0.01,Rain,Light Rain,150,2014-01-06 05:07:00
12:27 AM,50.0,46.9,89,29.91,2.5,SSE,9.2,20.7,0.01,Rain,Light Rain,150,2014-01-06 05:27:00
12:40 AM,50.0,48.0,93,29.90,1.8,SSE,8.1,20.7,0.03,Rain,Light Rain,150,2014-01-06 05:40:00
12:47 AM,51.8,48.2,88,29.89,2.5,SSE,10.4,20.7,0.04,Rain,Light Rain,160,2014-01-06 05:47:00
12:52 AM,51.1,48.0,89,29.88,2.0,SE,12.7,19.6,0.05,Rain,Light Rain,140,2014-01-06 05:52:00
1:10 AM,51.1,48.0,89,29.86,3.0,SSE,9.2,19.6,0.01,Rain,Light Rain,160,2014-01-06 06:10:00
1:21 AM,51.1,48.0,89,29.86,1.8,SSE,10.4,20.7,0.01,Rain,Light Rain,150,2014-01-06 06:21:00
1:47 AM,50.0,48.2,94,29.86,0.8,South,8.1,-,0.01,,Overcast,170,2014-01-06 06:47:00
1:52 AM,50.0,48.0,93,29.86,0.8,South,9.2,18.4,0.01,,Overcast,170,2014-01-06 06:52:00
2:22 AM,50.0,48.0,93,29.84,1.0,SSE,6.9,19.6,N/A,,Overcast,160,2014-01-06 07:22:00
2:42 AM,50.0,48.0,93,29.83,0.8,South,10.4,19.6,N/A,,Overcast,170,2014-01-06 07:42:00
2:52 AM,50.0,48.0,93,29.81,0.5,Variable,6.9,-,N/A,Fog,Fog,0,2014-01-06 07:52:00
3:14 AM,50.0,48.0,93,29.79,0.2,Variable,6.9,-,N/A,Fog,Fog,0,2014-01-06 08:14:00
3:52 AM,50.0,48.0,93,29.75,0.2,Variable,5.8,-,0.00,Fog-Rain,Light Rain,0,2014-01-06 08:52:00
4:04 AM,51.1,48.0,89,29.74,0.5,Variable,6.9,-,0.00,Fog,Fog,0,2014-01-06 09:04:00
4:52 AM,51.1,48.9,92,29.71,0.5,South,11.5,18.4,0.00,Fog,Fog,180,2014-01-06 09:52:00
5:09 AM,51.1,48.9,92,29.69,1.5,South,9.2,-,0.02,Rain,Light Rain,170,2014-01-06 10:09:00
5:32 AM,51.1,48.9,92,29.68,0.8,Variable,6.9,18.4,0.02,,Overcast,0,2014-01-06 10:32:00
5:50 AM,51.8,50.0,94,29.66,1.5,South,10.4,17.3,0.03,Rain,Light Rain,170,2014-01-06 10:50:00
5:52 AM,53.1,50.0,89,29.66,1.2,South,9.2,19.6,0.03,,Overcast,180,2014-01-06 10:52:00
6:17 AM,53.1,51.1,93,29.65,0.5,South,9.2,24.2,0.00,Fog,Fog,190,2014-01-06 11:17:00
6:27 AM,53.1,51.1,93,29.64,0.2,South,10.4,25.3,0.00,Fog,Fog,180,2014-01-06 11:27:00
6:52 AM,53.1,51.1,93,29.63,0.2,South,8.1,20.7,0.00,Fog,Fog,190,2014-01-06 11:52:00
7:14 AM,54.0,52.0,93,29.61,0.5,South,10.4,21.9,N/A,Fog,Fog,180,2014-01-06 12:14:00
7:52 AM,55.9,53.1,90,29.59,0.8,South,11.5,21.9,0.02,Rain,Light Rain,190,2014-01-06 12:52:00
8:20 AM,55.0,53.1,93,29.57,0.2,South,12.7,20.7,0.00,Fog-Rain,Light Rain,180,2014-01-06 13:20:00
8:52 AM,54.0,52.0,93,29.56,0.2,South,8.1,20.7,0.00,Fog,Fog,180,2014-01-06 13:52:00
9:52 AM,54.0,52.0,93,29.51,0.2,South,13.8,26.5,N/A,Fog,Fog,180,2014-01-06 14:52:00
10:52 AM,55.0,53.1,93,29.46,0.2,SSW,15.0,23.0,N/A,Fog,Fog,200,2014-01-06 15:52:00
11:33 AM,57.0,54.0,89,29.41,1.0,SSW,16.1,31.1,N/A,,Overcast,210,2014-01-06 16:33:00
11:36 AM,57.0,54.0,89,29.41,3.0,SSW,18.4,33.4,N/A,,Overcast,210,2014-01-06 16:36:00
11:52 AM,57.0,54.0,89,29.40,9.0,SW,19.6,33.4,0.00,Rain,Light Rain,220,2014-01-06 16:52:00
12:13 PM,57.0,54.0,89,29.38,10.0,SSW,18.4,28.8,0.00,,Overcast,210,2014-01-06 17:13:00
12:52 PM,55.9,53.1,90,29.37,10.0,SW,20.7,28.8,0.00,,Overcast,220,2014-01-06 17:52:00
1:41 PM,55.0,52.0,89,29.33,10.0,South,9.2,19.6,N/A,,Mostly Cloudy,190,2014-01-06 18:41:00
1:48 PM,55.4,51.8,88,29.33,10.0,SSW,10.4,18.4,N/A,,Scattered Clouds,200,2014-01-06 18:48:00
1:52 PM,55.0,51.1,86,29.34,10.0,SSW,11.5,-,N/A,,Scattered Clouds,200,2014-01-06 18:52:00
2:52 PM,53.1,48.9,86,29.35,10.0,SSW,10.4,-,0.00,Rain,Light Rain,200,2014-01-06 19:52:00
3:16 PM,51.1,46.9,86,29.38,5.0,WSW,16.1,21.9,0.01,Rain,Light Rain,240,2014-01-06 20:16:00
3:26 PM,51.1,46.0,83,29.38,10.0,WSW,13.8,-,0.02,Rain,Light Rain,250,2014-01-06 20:26:00
3:52 PM,48.9,43.0,80,29.37,7.0,WSW,12.7,-,0.04,Rain,Light Rain,250,2014-01-06 20:52:00
4:52 PM,45.0,39.9,82,29.38,10.0,SW,10.4,-,0.00,Rain,Light Rain,230,2014-01-06 21:52:00
5:52 PM,42.1,37.9,85,29.38,10.0,SW,9.2,-,0.04,Rain,Light Rain,230,2014-01-06 22:52:00
6:20 PM,42.1,37.9,85,29.39,10.0,WSW,15.0,19.6,0.01,,Overcast,240,2014-01-06 23:20:00
6:35 PM,39.0,33.1,79,29.41,10.0,WNW,16.1,29.9,0.01,Rain,Light Rain,290,2014-01-06 23:35:00
6:42 PM,37.0,32.0,82,29.41,10.0,West,11.5,19.6,0.01,Rain,Light Rain,280,2014-01-06 23:42:00
6:49 PM,37.4,32.0,81,29.42,10.0,West,13.8,19.6,0.01,Rain,Light Rain,270,2014-01-06 23:49:00
6:52 PM,37.0,32.0,82,29.43,10.0,West,15.0,21.9,0.01,,Overcast,270,2014-01-06 23:52:00
7:30 PM,35.1,28.0,76,29.43,10.0,West,11.5,-,N/A,,Overcast,280,2014-01-07 00:30:00
7:52 PM,35.1,27.0,72,29.43,10.0,West,11.5,-,N/A,,Overcast,280,2014-01-07 00:52:00
8:52 PM,33.1,21.9,64,29.46,10.0,West,16.1,21.9,N/A,,Overcast,280,2014-01-07 01:52:00
9:52 PM,32.0,19.0,59,29.48,10.0,West,9.2,26.5,N/A,,Mostly Cloudy,280,2014-01-07 02:52:00
10:52 PM,30.0,16.0,56,29.50,10.0,West,16.1,26.5,N/A,,Mostly Cloudy,280,2014-01-07 03:52:00
11:52 PM,28.9,12.9,51,29.52,10.0,West,13.8,-,N/A,,Clear,270,2014-01-07 04:52:00